Regional Weather Roundup
Issued by NWS

Home | Current Version | Previous Version | Text Only | Print | Product List | Glossary On
Versions: 1 2 3 4 5 6 7 8 9 10 11 12 13 14 15 16 17 18 19 20 21 22 23 24 25 26 27 28 29 30 31 32 33 34 35 36 37 38 39 40 41 42 43 44 45 46 47 48 49 50
000
ASUS44 KMEG 010810
RWRTN
TENNESSEE HOURLY STATE WEATHER ROUNDUP
NATIONAL WEATHER SERVICE MEMPHIS TN
300 AM CDT SAT NOV 01 2014

TNZ002-004-019-021-049-052-054-088>092-010900-
WEST TENNESSEE

CITY           SKY/WX    TMP DP  RH WIND       PRES   REMARKS
MEMPHIS INTL   CLEAR     39  23  52 N12G23    30.32S WCI  32
NWS MEMPHIS      N/A     37 N/A N/A MISG        N/A
JACKSON        CLEAR     36  24  62 N12       30.29R WCI  28
DYERSBURG      CLEAR     36  18  48 NW10      30.34R WCI  28
UNION CITY     CLEAR     34  21  60 N10       30.30R WCI  26
HUNTINGDON     CLEAR     34  20  57 VRB7      30.27R WCI  28
LEXINGTON      CLEAR     36  21  55 N13       30.22S WCI  27
SAVANNAH       CLEAR     36  21  55 N8        30.23S WCI  29
$$

TNZ008-025-027-028-033-062-065-066-010900-
NORTH MIDDLE TENNESSEE

CITY           SKY/WX    TMP DP  RH WIND       PRES   REMARKS
NASHVILLE      CLOUDY    39  26  59 N18G26    30.15R WCI  30
DICKSON        CLOUDY    34  21  60 N10       30.18R WCI  26
PORTLAND       CLOUDY    36  28  75 NW15      30.12R WCI  26
CLARKSVILLE    CLEAR     37  25  61 N17G28    30.21R WCI  27
LEBANON        MOCLDY    37  31  79 N17       30.11R WCI  27
SMYRNA         MOCLDY    40  28  62 N17G29    30.15R WCI  31
COOKEVILLE     CLOUDY    34  32  93 N9        30.04F WCI  26
LIVINGSTON     CLOUDY    31  30  96 N13       30.02R WCI  21
GALLATIN       CLOUDY    37  31  79 NW10      30.14R WCI  30
CROSSVILLE     LGT SNOW  33  29  85 NW14G21   29.98R FOG     WCI  23
ROCKWOOD       CLOUDY    31  30  96 N12G26    29.93S WCI  22
$$

TNZ061-075-076-078-094-096-097-010900-
SOUTH MIDDLE TENNESSEE

CITY           SKY/WX    TMP DP  RH WIND       PRES   REMARKS
FAYETTEVILLE   CLOUDY    36  25  64 NW23G40   30.10S WCI  24
TULLAHOMA      CLOUDY    36  25  64 NW22      30.08S WCI  24
WINCHESTER     CLOUDY    37  27  65 NW13      30.08R WCI  29
MCMINNVILLE    MOCLDY    36  30  80 NW17      30.06S WCI  25
$$

TNZ017-018-042-046-047-010900-
NORTHEAST TENNESSEE

CITY           SKY/WX    TMP DP  RH WIND       PRES   REMARKS
TRI CITIES     LGT SNOW  34  33  96 W5        29.86F FOG     WCI  30
ELIZABETHTON   LGT SNOW  30  30 100 SW6       29.85S FOG     WCI  24
$$

TNZ012-013-036-069-073-074-010900-
CENTRAL EAST TENNESSEE

CITY           SKY/WX    TMP DP  RH WIND       PRES   REMARKS
KNOXVILLE      CLOUDY    36  33  89 NW7       29.94F WCI  30
OAK RIDGE      MOCLDY    38  31  76 VRB3      29.96F
GATLINBURG     CLOUDY    34  32  93 W5        29.93S WCI  30
MORRISTOWN       N/A     36  34  93 NW7       29.91S WCI  30
$$

TNZ083-085-099-010900-
SOUTHEAST TENNESSEE

CITY           SKY/WX    TMP DP  RH WIND       PRES   REMARKS
CHATTANOOGA    CLOUDY    39  30  70 NW15G23   30.02S WCI  31
$$

SKY/WX REPORTED AS FAIR MEANS FEW OR NO CLOUDS BELOW
12 THOUSAND FEET.




USA.gov is the U.S. government's official web portal to all federal, state and local government web resources and services.